This is the latest recevied weather packets stored in our database for station/object N7BTW-13. If no packets are shown the sender has not sent any weather packets the latest 10 day(s).
| Time | Temp. | Humidity | Pressure | Rain* | Wind** | Luminosity | Snow |
|---|---|---|---|---|---|---|---|
| 1788564608 | 17.78° C | 84% | - | 0 mm | - | - | - |
| 1788564006 | 17.78° C | 84% | - | 1.02 mm | - | - | - |
| 1788563407 | 17.22° C | 84% | - | 1.02 mm | - | - | - |
| 1788562807 | 16.67° C | 90% | - | 1.02 mm | - | - | - |
| 1788562207 | 16.67° C | 91% | - | 1.02 mm | - | - | - |
| 1788561609 | 16.11° C | 89% | - | 1.02 mm | - | - | - |
| 1788561008 | 16.67° C | 86% | - | 1.02 mm | - | - | - |
| 1788560406 | 19.44° C | 73% | - | 0 mm | - | - | - |
| 1788559806 | 19.44° C | 73% | - | 0.51 mm | - | - | - |
| 1788559205 | 18.89° C | 75% | - | 0.51 mm | - | - | - |
| 1788558607 | 19.44° C | 78% | - | 0.51 mm | - | - | - |
| 1788558007 | 18.33° C | 84% | - | 0.51 mm | - | - | - |
| 1788557408 | 17.78° C | 84% | - | 0.51 mm | - | - | - |
| 1788556806 | 18.33° C | 81% | - | 0.51 mm | - | - | - |
| 1788556207 | 20° C | 69% | - | 0 mm | - | - | - |
| 1788555607 | 19.44° C | 70% | - | 0 mm | - | - | - |
| 1788555009 | 20° C | 68% | - | 0 mm | - | - | - |
| 1788554407 | 20° C | 67% | - | 0 mm | - | - | - |
| 1788553808 | 21.11° C | 66% | - | 0 mm | - | - | - |
| 1788553206 | 20.56° C | 70% | - | 0 mm | - | - | - |
| 1788552608 | 19.44° C | 72% | - | 0 mm | - | - | - |
| 1788552006 | 18.89° C | 71% | - | 0 mm | - | - | - |
| 1788551407 | 18.89° C | 74% | - | 0 mm | - | - | - |
| 1788550806 | 19.44° C | 74% | - | 0 mm | - | - | - |
| 1788550209 | 20.56° C | 72% | - | 0 mm | - | - | - |
* Rain latest hour (hover to see other rain measurements)
** Current wind speed in m/s (hover to see current wind gust speed)